ERS-1 (21574 NORAD) Tracking and Keplerian Element Data

This shows tracking and keplerian element data for the satellite.

Feedback or suggestion? Click here.




ElementValue
Catalog21574
NameERS-1
Epoch Orbit41445
Epoch Day198.86770176
Epoch Year2018
RAAN145.8255
Inclination98.5056
Eccentricity0.0032235
Argument of Perigee212.5473
Mean Anonmoly147.3727
Mean Motion14.37656705
Decay Rate9E-08
L11 21574U 91050A 18198.86770176 .00000009 00000-0 17617-4 0 9998
L22 21574 98.5056 145.8255 0032235 212.5473 147.3727 14.37656705414456

Live tracking and technical data element details for ERS-1 (NORAD 21574). ERS-1 can be tracked NOW for your location showing map with azimuth and elevation plus other details from your city location.

Track the satellite on the map from your city or location and see movement details for azimuth, elevation, latitude, longitude, range, height, and movement on the map or in text.







IsCatalogInMostPopularTable: catalog: 21574, numindb: 21
Update: records affected: 1



GetName: 21574 ERS-1

Hit Count: updated at: Fri, 20 Jul 2018 20:35:40 GMT